Vorticity
3 15 11 6 5 6 8 8 9 10 10 10 8 9 9 10 9 11 11 7 7 10 11 6 11 9 10
22 8 5 4 6 8 9 10 10 11 9 8 8 10 11 11 11 9 10 12 8 11 11 10 14 14 14
6 5 5 10 9 7 9 11 10 8 7 9 11 10 12 6 5 7 7 6 10 7 10 12 17 14 14
7 6 -4 2 11 9 10 8 8 10 10 11 6 7 5 6 11 11 8 10 13 13 13 15 13 11 13
-2 8 6 2 11 9 9 9 10 10 8 8 7 8 9 9 10 10 13 12 12 11 13 11 9 10 11
10 10 8 10 10 8 9 9 11 7 6 7 7 7 9 11 12 14 12 10 13 13 11 10 10 10 10
6 7 12 10 9 9 9 9 8 9 8 9 7 9 11 14 14 12 10 12 14 11 10 10 9 9 9
9 10 9 8 8 9 7 6 9 10 8 8 8 11 14 15 13 11 11 13 11 10 10 9 8 8 8
9 8 8 8 9 7 7 9 8 9 8 7 11 10 11 13 12 14 12 10 9 9 9 9 8 8 10
9 9 8 7 7 8 8 7 8 9 8 8 12 12 9 9 14 14 12 15 12 11 11 11 12 10 8
8 8 7 7 8 7 8 9 10 10 12 12 12 10 8 11 9 9 9 11 12 12 10 11 12 9 10
7 8 7 7 7 8 10 10 11 11 13 11 10 10 9 8 9 10 12 11 13 13 12 12 13 11 8
8 7 7 8 9 10 11 11 12 14 12 10 10 9 9 11 10 12 12 11 14 11 10 11 11 10 11
6 7 7 10 11 10 13 10 13 12 12 10 10 10 10 13 11 13 12 9 12 10 10 12 14 13 13
7 9 10 10 11 12 11 13 12 11 12 10 11 12 13 14 13 13 12 13 13 14 14 13 14 13 13
9 9 10 11 12 13 12 11 12 10 13 13 12 10 12 17 12 12 12 15 17 15 13 11 13 12 13
9 10 10 13 13 13 12 11 13 12 13 13 12 9 11 11 13 18 13 13 15 15 12 11 13 13 14
Height
3095 3094 3092 3090 3087 3085 3083 3078 3075 3073 3069 3065 3060 3057 3052 3048 3045 3040 3036 3031 3026 3020 3017 3012 3009 3005 2999
3087 3086 3083 3081 3080 3077 3074 3070 3067 3064 3060 3055 3051 3047 3043 3038 3033 3029 3024 3019 3015 3010 3006 3001 2996 2994 2992
3080 3078 3075 3073 3072 3068 3065 3062 3059 3055 3050 3045 3041 3038 3032 3029 3025 3019 3014 3007 3004 2999 2995 2992 2989 2984 2981
3071 3069 3067 3066 3063 3060 3058 3056 3052 3045 3040 3036 3032 3028 3025 3021 3015 3009 3004 2999 2993 2987 2984 2980 2977 2974 2970
3063 3061 3060 3057 3056 3052 3050 3046 3043 3037 3033 3030 3025 3020 3015 3011 3005 3000 2993 2987 2982 2978 2974 2968 2966 2964 2959
3055 3054 3052 3051 3047 3044 3040 3037 3037 3031 3023 3022 3015 3010 3004 3000 2994 2986 2982 2977 2974 2970 2963 2960 2956 2952 2950
3047 3046 3044 3041 3039 3036 3031 3028 3024 3019 3013 3010 3004 3001 2995 2991 2984 2979 2974 2969 2964 2959 2956 2951 2946 2942 2939
3038 3036 3034 3031 3029 3026 3022 3018 3014 3009 3001 2996 2993 2989 2985 2981 2976 2970 2965 2961 2956 2950 2944 2941 2937 2932 2929
3031 3028 3024 3021 3020 3016 3012 3008 3003 3000 2994 2985 2983 2978 2977 2975 2970 2964 2957 2949 2947 2943 2937 2932 2928 2924 2920
3024 3021 3017 3014 3011 3009 3003 2997 2992 2988 2986 2978 2975 2967 2962 2968 2965 2955 2948 2940 2937 2933 2930 2924 2919 2914 2910
3017 3013 3008 3005 3002 2997 2993 2987 2984 2979 2974 2967 2963 2957 2951 2944 2948 2945 2939 2933 2928 2923 2919 2915 2911 2905 2899
3008 3005 3001 2997 2993 2989 2985 2980 2975 2971 2966 2961 2956 2951 2943 2939 2934 2934 2930 2924 2918 2913 2909 2905 2902 2897 2892
3000 2996 2994 2990 2986 2982 2978 2971 2968 2964 2958 2955 2950 2944 2931 2933 2927 2923 2916 2913 2908 2903 2898 2895 2891 2887 2882
2991 2988 2985 2983 2978 2973 2969 2965 2962 2957 2953 2948 2944 2936 2929 2922 2919 2914 2908 2901 2898 2893 2888 2885 2882 2878 2873
2981 2979 2977 2974 2971 2965 2960 2956 2951 2948 2945 2939 2939 2928 2921 2915 2912 2906 2899 2895 2890 2885 2881 2876 2874 2869 2865
2974 2970 2969 2967 2963 2957 2952 2948 2941 2941 2936 2933 2927 2920 2915 2913 2905 2899 2892 2887 2883 2879 2874 2867 2864 2863 2858
2964 2962 2959 2958 2951 2950 2946 2942 2938 2932 2929 2924 2919 2911 2905 2900 2899 2894 2885 2881 2876 2873 2868 2862 2856 2853 2849